| time (UTC) | temp F | wind direction | speed knots | gust knots | rain 1hr in | rain 24hr in | rain mn in | humidity % | barometer mb |
| 20260504173827 | 80 | 221 | 6.1 | 8.7 | 0.00 | 0.00 | 0.00 | 34 | 991.4 |
| 20260504172827 | 79 | 227 | 9.6 | 16.5 | 0.00 | 0.00 | 0.00 | 32 | 991.7 |
| 20260504170827 | 79 | 244 | 11.3 | 13.0 | 0.00 | 0.00 | 0.00 | 31 | 991.7 |
| 20260504150827 | 74 | 186 | 7.0 | 8.7 | 0.00 | 0.00 | 0.00 | 39 | 992.3 |
| 20260504140827 | 70 | 169 | 3.5 | 6.1 | 0.00 | 0.00 | 0.00 | 42 | 992.8 |
| 20260504081827 | 53 | 156 | 0.0 | 0.0 | 0.00 | 0.00 | 0.00 | 56 | 995.2 |
| 20260504045827 | 56 | 156 | 0.0 | 0.0 | 0.00 | 0.00 | 0.00 | 48 | 997.4 |
| 20260504043827 | 59 | 231 | 0.0 | 0.9 | 0.00 | 0.00 | 0.00 | 43 | 997.7 |
| 20260504042827 | 60 | 258 | 0.9 | 1.7 | 0.00 | 0.00 | 0.00 | 43 | 997.6 |
| 20260504040827 | 60 | 248 | 0.9 | 1.7 | 0.00 | 0.00 | 0.00 | 42 | 997.9 |
| 20260504035827 | 61 | 236 | 2.6 | 3.5 | 0.00 | 0.00 | 0.00 | 41 | 998.1 |
| 20260504033827 | 61 | 255 | 1.7 | 1.7 | 0.00 | 0.00 | 0.00 | 40 | 998.3 |
| 20260504032828 | 62 | 225 | 0.9 | 1.7 | 0.00 | 0.00 | 0.00 | 40 | 998.5 |
| 20260504030827 | 62 | 266 | 1.7 | 3.5 | 0.00 | 0.00 | 0.00 | 39 | 998.5 |
| 20260504025827 | 60 | 230 | 0.9 | 1.7 | 0.00 | 0.00 | 0.00 | 41 | 998.4 |
| 20260504023828 | 57 | 198 | 0.0 | 0.0 | 0.00 | 0.00 | 0.00 | 51 | 998.5 |
| 20260504022827 | 56 | 195 | 0.0 | 0.0 | 0.00 | 0.00 | 0.00 | 51 | 998.3 |
| 20260504021827 | 58 | 195 | 0.0 | 0.0 | 0.00 | 0.00 | 0.00 | 50 | 998.3 |
| 20260504020827 | 58 | 225 | 0.0 | 0.0 | 0.00 | 0.00 | 0.00 | 47 | 998.4 |
| 20260504014827 | 59 | 238 | 0.0 | 0.0 | 0.00 | 0.00 | 0.00 | 42 | 998.4 |
| 20260504013826 | 61 | 237 | 0.0 | 0.0 | 0.00 | 0.00 | 0.00 | 39 | 998.3 |
| 20260504012827 | 64 | 237 | 0.0 | 0.0 | 0.00 | 0.00 | 0.00 | 35 | 998.3 |
| 20260504011827 | 66 | 237 | 0.0 | 0.0 | 0.00 | 0.00 | 0.00 | 33 | 998.3 |
| 20260504010827 | 68 | 256 | 0.0 | 0.0 | 0.00 | 0.00 | 0.00 | 30 | 998.2 |
| 20260504005827 | 71 | 232 | 0.9 | 1.7 | 0.00 | 0.00 | 0.00 | 28 | 998.2 |
| 20260504004827 | 74 | 273 | 0.0 | 0.9 | 0.00 | 0.00 | 0.00 | 27 | 998.2 |
| 20260504002827 | 75 | 255 | 1.7 | 1.7 | 0.00 | 0.00 | 0.00 | 25 | 998.3 |
| 20260504001827 | 76 | 249 | 1.7 | 1.7 | 0.00 | 0.00 | 0.00 | 25 | 998.3 |
| 20260504000827 | 76 | 258 | 3.5 | 3.5 | 0.00 | 0.00 | 0.00 | 25 | 998.4 |
| 20260503235827 | 75 | 247 | 7.8 | 11.3 | 0.00 | 0.00 | 0.00 | 24 | 998.4 |
| 20260503234828 | 77 | 243 | 3.5 | 3.5 | 0.00 | 0.00 | 0.00 | 24 | 998.3 |
| 20260503233827 | 76 | 263 | 5.2 | 7.0 | 0.00 | 0.00 | 0.00 | 24 | 998.4 |
| 20260503232826 | 77 | 249 | 5.2 | 6.1 | 0.00 | 0.00 | 0.00 | 24 | 998.3 |
| 20260503231827 | 77 | 264 | 2.6 | 4.3 | 0.00 | 0.00 | 0.00 | 23 | 998.4 |
| 20260503230827 | 77 | 254 | 5.2 | 6.1 | 0.00 | 0.00 | 0.00 | 23 | 998.4 |
| 20260503225828 | 78 | 270 | 3.5 | 4.3 | 0.00 | 0.00 | 0.00 | 23 | 998.5 |
| 20260503223827 | 78 | 256 | 6.1 | 7.8 | 0.00 | 0.00 | 0.00 | 23 | 998.4 |
| 20260503221827 | 78 | 116 | 7.8 | 10.4 | 0.00 | 0.00 | 0.00 | 24 | 998.5 |
| 20260503220826 | 77 | 248 | 5.2 | 6.1 | 0.00 | 0.00 | 0.00 | 24 | 998.7 |
| 20260503215826 | 77 | 252 | 5.2 | 7.8 | 0.00 | 0.00 | 0.00 | 24 | 998.6 |
| 20260503214828 | 76 | 237 | 5.2 | 8.7 | 0.00 | 0.00 | 0.00 | 25 | 998.7 |
| 20260503213827 | 77 | 248 | 7.0 | 9.6 | 0.00 | 0.00 | 0.00 | 23 | 998.7 |
| 20260503212827 | 77 | 230 | 7.8 | 9.6 | 0.00 | 0.00 | 0.00 | 23 | 998.7 |
| 20260503211827 | 77 | 114 | 4.3 | 7.8 | 0.00 | 0.00 | 0.00 | 24 | 998.8 |
| 20260503210827 | 77 | 246 | 8.7 | 11.3 | 0.00 | 0.00 | 0.00 | 24 | 998.8 |
| 20260503205827 | 77 | 240 | 7.8 | 9.6 | 0.00 | 0.00 | 0.00 | 25 | 998.9 |
| 20260503204827 | 78 | 267 | 3.5 | 6.1 | 0.00 | 0.00 | 0.00 | 26 | 998.9 |
| 20260503203827 | 77 | 252 | 4.3 | 7.0 | 0.00 | 0.00 | 0.00 | 26 | 999.0 |
| 20260503202827 | 77 | 254 | 6.1 | 8.7 | 0.00 | 0.00 | 0.00 | 25 | 999.1 |
| 20260503201827 | 77 | 235 | 6.1 | 7.0 | 0.00 | 0.00 | 0.00 | 25 | 999.2 |
| 20260503200827 | 76 | 255 | 9.6 | 11.3 | 0.00 | 0.00 | 0.00 | 25 | 999.3 |
| 20260503195827 | 76 | 232 | 7.8 | 8.7 | 0.00 | 0.00 | 0.00 | 26 | 999.4 |
| 20260503193827 | 76 | 261 | 8.7 | 11.3 | 0.00 | 0.00 | 0.00 | 27 | 999.3 |
| 20260503191827 | 75 | 263 | 7.0 | 8.7 | 0.00 | 0.00 | 0.00 | 29 | 999.4 |
| 20260503190827 | 74 | 240 | 8.7 | 12.2 | 0.00 | 0.00 | 0.00 | 28 | 999.4 |
| 20260503185827 | 76 | 247 | 6.1 | 8.7 | 0.00 | 0.00 | 0.00 | 31 | 999.4 |
| 20260503184827 | 75 | 252 | 2.6 | 3.5 | 0.00 | 0.00 | 0.00 | 32 | 999.5 |
| 20260503183827 | 75 | 267 | 5.2 | 8.7 | 0.00 | 0.00 | 0.00 | 29 | 999.4 |
| 20260503182826 | 75 | 243 | 7.0 | 8.7 | 0.00 | 0.00 | 0.00 | 30 | 999.6 |
| 20260503181828 | 74 | 272 | 6.1 | 7.0 | 0.00 | 0.00 | 0.00 | 30 | 999.6 |
| 20260503180827 | 74 | 243 | 4.3 | 6.1 | 0.00 | 0.00 | 0.00 | 32 | 999.5 |
| 20260503175826 | 73 | 270 | 6.1 | 11.3 | 0.00 | 0.00 | 0.00 | 32 | 999.6 |